• In Deutschland
  • Länderverzeichnis
  • Für 7 Tage
  • Wassertemperatur
  • Satellitenkarten
  • Wetterkarte
  • Widgets
  • user-avatar
    Anmelden

    Stündliche Wetter Larissa

    Heute, 20 Mai, Sonntag

    Zeit Temperatur Niederschläge Wind Luftdruck Luftfeuchtigkeit
    00:00 +20°C° 0 mm 1 m/S 753 mmHg 80%
    01:00 +20°C° 0 mm 1 m/S 752 mmHg 80%
    02:00 +20°C° 0,1 mm 1 m/S 753 mmHg 81%
    03:00 +20°C° 0,1 mm 1 m/S 753 mmHg 82%
    04:00 +20°C° 0,1 mm 1 m/S 753 mmHg 83%
    05:00 +21°C° 0 mm 1 m/S 753 mmHg 78%
    06:00 +22°C° 0 mm 1 m/S 753 mmHg 74%
    07:00 +24°C° 0 mm 1 m/S 753 mmHg 69%
    08:00 +25°C° 0 mm 1 m/S 753 mmHg 67%
    09:00 +25°C° 0 mm 2 m/S 754 mmHg 64%
    10:00 +26°C° 0 mm 2 m/S 754 mmHg 61%
    11:00 +27°C° 0,2 mm 3 m/S 754 mmHg 61%
    12:00 +27°C° 0,2 mm 3 m/S 754 mmHg 61%
    13:00 +27°C° 0 mm 4 m/S 753 mmHg 63%
    14:00 +26°C° 0,7 mm 4 m/S 753 mmHg 66%
    15:00 +26°C° 0,7 mm 4 m/S 753 mmHg 68%
    16:00 +25°C° 0,7 mm 4 m/S 753 mmHg 71%
    17:00 +24°C° 0,6 mm 3 m/S 753 mmHg 75%
    18:00 +23°C° 0,6 mm 2 m/S 753 mmHg 80%
    19:00 +21°C° 0,6 mm 2 m/S 753 mmHg 84%
    20:00 +22°C° 0,5 mm 1 m/S 753 mmHg 85%
    21:00 +21°C° 0,5 mm 1 m/S 754 mmHg 86%
    22:00 +21°C° 0,5 mm 1 m/S 754 mmHg 87%
    23:00 +21°C° 0,6 mm 1 m/S 754 mmHg 88%

    Morgen, 21 Mai, Montag

    Zeit Temperatur Niederschläge Wind Luftdruck Luftfeuchtigkeit
    00:00 +20°C° 0,6 mm 1 m/S 754 mmHg 90%
    01:00 +20°C° 0,6 mm 1 m/S 754 mmHg 91%
    02:00 +20°C° 0,6 mm 1 m/S 754 mmHg 91%
    03:00 +20°C° 0,6 mm 1 m/S 754 mmHg 91%
    04:00 +20°C° 0,6 mm 1 m/S 754 mmHg 92%
    05:00 +20°C° 0,8 mm 1 m/S 754 mmHg 90%
    06:00 +20°C° 0,8 mm 1 m/S 754 mmHg 89%
    07:00 +21°C° 0,8 mm 1 m/S 754 mmHg 87%
    08:00 +22°C° 0,2 mm 1 m/S 754 mmHg 83%
    09:00 +23°C° 0,2 mm 2 m/S 754 mmHg 80%
    10:00 +23°C° 0,2 mm 2 m/S 754 mmHg 76%
    11:00 +24°C° 0 mm 2 m/S 754 mmHg 72%
    12:00 +25°C° 0 mm 2 m/S 754 mmHg 69%
    13:00 +25°C° 0 mm 2 m/S 754 mmHg 66%
    14:00 +25°C° 0 mm 2 m/S 753 mmHg 64%
    15:00 +25°C° 0 mm 2 m/S 753 mmHg 63%
    16:00 +25°C° 0 mm 2 m/S 753 mmHg 62%
    17:00 +24°C° 0 mm 2 m/S 753 mmHg 67%
    18:00 +22°C° 0 mm 1 m/S 753 mmHg 72%
    19:00 +21°C° 0 mm 1 m/S 753 mmHg 76%
    20:00 +21°C° 0 mm 1 m/S 754 mmHg 77%
    21:00 +20°C° 0 mm 1 m/S 754 mmHg 77%
    22:00 +20°C° 0 mm 1 m/S 754 mmHg 78%
    23:00 +19°C° 0 mm 1 m/S 754 mmHg 78%

    übermorgen, 22 Mai, Dienstag

    Zeit Temperatur Niederschläge Wind Luftdruck Luftfeuchtigkeit
    00:00 +19°C° 0 mm 1 m/S 754 mmHg 78%
    01:00 +19°C° 0 mm 1 m/S 754 mmHg 79%
    02:00 +19°C° 0 mm 1 m/S 754 mmHg 80%
    03:00 +18°C° 0 mm 1 m/S 754 mmHg 80%
    04:00 +18°C° 0 mm 1 m/S 754 mmHg 81%
    05:00 +19°C° 0 mm 1 m/S 755 mmHg 76%
    06:00 +21°C° 0 mm 1 m/S 755 mmHg 71%
    07:00 +23°C° 0 mm 1 m/S 755 mmHg 66%
    08:00 +24°C° 0 mm 1 m/S 755 mmHg 63%
    09:00 +25°C° 0 mm 1 m/S 755 mmHg 59%
    10:00 +26°C° 0 mm 2 m/S 756 mmHg 56%
    11:00 +27°C° 0 mm 2 m/S 755 mmHg 54%
    12:00 +28°C° 0 mm 2 m/S 755 mmHg 52%
    13:00 +28°C° 0 mm 2 m/S 755 mmHg 50%
    14:00 +28°C° 0 mm 2 m/S 755 mmHg 51%
    15:00 +28°C° 0 mm 2 m/S 755 mmHg 52%
    16:00 +28°C° 0 mm 3 m/S 755 mmHg 53%
    17:00 +26°C° 0 mm 2 m/S 755 mmHg 59%
    18:00 +24°C° 0 mm 2 m/S 755 mmHg 65%
    19:00 +21°C° 0 mm 2 m/S 755 mmHg 71%
    20:00 +22°C° 0 mm 1 m/S 756 mmHg 71%
    21:00 +21°C° 0 mm 1 m/S 756 mmHg 72%
    22:00 +21°C° 0 mm 1 m/S 756 mmHg 72%
    23:00 +20°C° 0 mm 1 m/S 756 mmHg 72%

    23 Mai, Mittwoch

    Zeit Temperatur Niederschläge Wind Luftdruck Luftfeuchtigkeit
    00:00 +18°C° 0 mm 0 m/S 756 mmHg 71%
    01:00 +18°C° 0 mm 0 m/S 756 mmHg 71%
    02:00 +18°C° 0 mm 0 m/S 756 mmHg 71%
    03:00 +17°C° 0 mm 0 m/S 756 mmHg 72%
    04:00 +19°C° 0 mm 1 m/S 756 mmHg 72%
    05:00 +21°C° 0 mm 1 m/S 756 mmHg 68%
    06:00 +22°C° 0 mm 1 m/S 756 mmHg 64%
    07:00 +24°C° 0 mm 1 m/S 756 mmHg 60%
    08:00 +25°C° 0 mm 1 m/S 756 mmHg 56%
    09:00 +26°C° 0 mm 2 m/S 756 mmHg 53%
    10:00 +28°C° 0 mm 2 m/S 756 mmHg 50%
    11:00 +28°C° 0 mm 3 m/S 756 mmHg 50%
    12:00 +29°C° 0 mm 3 m/S 755 mmHg 50%
    13:00 +29°C° 0 mm 3 m/S 755 mmHg 49%
    14:00 +29°C° 0,1 mm 3 m/S 755 mmHg 52%
    15:00 +28°C° 0,1 mm 3 m/S 754 mmHg 54%
    16:00 +28°C° 0,1 mm 4 m/S 754 mmHg 57%
    17:00 +26°C° 0,8 mm 3 m/S 754 mmHg 65%
    18:00 +24°C° 0,8 mm 2 m/S 754 mmHg 73%
    19:00 +21°C° 0,8 mm 2 m/S 754 mmHg 81%
    20:00 +22°C° 0,6 mm 1 m/S 754 mmHg 81%
    21:00 +21°C° 0,6 mm 1 m/S 754 mmHg 82%
    22:00 +21°C° 0,6 mm 1 m/S 754 mmHg 83%
    23:00 +20°C° 0,6 mm 1 m/S 754 mmHg 83%

    24 Mai, Donnerstag

    Zeit Temperatur Niederschläge Wind Luftdruck Luftfeuchtigkeit
    00:00 +20°C° 0,6 mm 1 m/S 753 mmHg 83%
    01:00 +20°C° 0,6 mm 1 m/S 753 mmHg 84%
    02:00 +19°C° 0,2 mm 1 m/S 753 mmHg 84%
    03:00 +19°C° 0,2 mm 1 m/S 753 mmHg 85%
    04:00 +19°C° 0,2 mm 1 m/S 753 mmHg 85%
    05:00 +20°C° 0,1 mm 1 m/S 753 mmHg 81%
    06:00 +21°C° 0,1 mm 1 m/S 753 mmHg 77%
    07:00 +22°C° 0,1 mm 1 m/S 753 mmHg 72%
    08:00 +24°C° 0 mm 1 m/S 753 mmHg 67%
    09:00 +25°C° 0 mm 1 m/S 752 mmHg 63%
    10:00 +26°C° 0 mm 2 m/S 752 mmHg 58%
    11:00 +27°C° 0,3 mm 2 m/S 752 mmHg 56%
    12:00 +27°C° 0,3 mm 2 m/S 752 mmHg 55%
    13:00 +27°C° 0,3 mm 2 m/S 751 mmHg 53%
    14:00 +27°C° 0,1 mm 2 m/S 751 mmHg 53%
    15:00 +27°C° 0,1 mm 2 m/S 751 mmHg 53%
    16:00 +27°C° 0,1 mm 2 m/S 751 mmHg 53%
    17:00 +25°C° 0,1 mm 2 m/S 751 mmHg 57%
    18:00 +24°C° 0,1 mm 1 m/S 751 mmHg 61%
    19:00 +22°C° 0,1 mm 1 m/S 751 mmHg 65%
    20:00 +22°C° 0 mm 1 m/S 751 mmHg 65%
    21:00 +20°C° 0 mm 2 m/S 751 mmHg 65%
    22:00 +20°C° 0 mm 2 m/S 752 mmHg 66%
    23:00 +19°C° 0 mm 2 m/S 751 mmHg 67%

    25 Mai, Freitag

    Zeit Temperatur Niederschläge Wind Luftdruck Luftfeuchtigkeit
    00:00 +19°C° 0 mm 2 m/S 751 mmHg 68%
    01:00 +19°C° 0 mm 2 m/S 751 mmHg 69%
    02:00 +19°C° 0 mm 2 m/S 751 mmHg 70%
    03:00 +18°C° 0 mm 2 m/S 751 mmHg 70%
    04:00 +18°C° 0 mm 2 m/S 751 mmHg 71%
    05:00 +20°C° 0,1 mm 2 m/S 751 mmHg 68%
    06:00 +21°C° 0,1 mm 2 m/S 752 mmHg 65%
    07:00 +23°C° 0,1 mm 2 m/S 752 mmHg 62%
    08:00 +25°C° 0 mm 2 m/S 752 mmHg 58%
    09:00 +26°C° 0 mm 2 m/S 752 mmHg 54%
    10:00 +28°C° 0 mm 2 m/S 752 mmHg 50%
    11:00 +28°C° 0,1 mm 2 m/S 751 mmHg 49%
    12:00 +29°C° 0,1 mm 2 m/S 751 mmHg 47%
    13:00 +29°C° 0,1 mm 2 m/S 751 mmHg 45%
    14:00 +29°C° 0 mm 2 m/S 751 mmHg 45%
    15:00 +29°C° 0 mm 1 m/S 751 mmHg 45%
    16:00 +29°C° 0 mm 1 m/S 751 mmHg 45%
    17:00 +27°C° 0 mm 1 m/S 751 mmHg 50%
    18:00 +26°C° 0 mm 1 m/S 751 mmHg 55%
    19:00 +24°C° 0 mm 1 m/S 751 mmHg 61%
    20:00 +23°C° 0 mm 1 m/S 751 mmHg 62%
    21:00 +23°C° 0 mm 1 m/S 752 mmHg 64%
    22:00 +22°C° 0 mm 1 m/S 752 mmHg 65%
    23:00 +22°C° 0 mm 1 m/S 752 mmHg 66%
    Mehr zeigen